[[{"header":{"parameterUnit":"m.s-1","parameterCategory":1,"la1":30.2991,"la2":30.254,"lo1":-89.0895,"lo2":-89.0444,"dy":0.0017,"dx":0.0017,"nx":28,"ny":28,"refTime":"2025-03-24T03:00:00:Z","depth":0,"parameterNumber":2,"parameterNumberName":"U-component_of_WINDS"},"data":[0,0,0,0,0,0,0,0,0,0,0,0,0,0,0,0,0,0,0,0,0,0,0,0,0,0,0,0,0,0,0,0,0,0,0,0,0,0,0,0,0,0,0,0,0,0,0,0,0,0,0,0,0,0,0,0,0,0,-0.2267,-0.2265,0,-0.2083,-0.2081,-0.2078,-0.1999,-0.1999,-0.2,-0.2,-0.1805,-0.18,-0.1795,0,0,0,0,0,0,0,0,0,0,0,0,0,-0.2547,-0.2542,-0.2268,-0.2265,-0.2263,-0.2083,-0.208,-0.2078,-0.1999,-0.1999,-0.2,-0.2,-0.1807,-0.1801,-0.1794,0,0,0,0,0,0,0,0,0,0,0,0,0,-0.24,-0.2541,-0.2268,-0.2202,-0.2194,-0.2084,-0.208,-0.2077,-0.1999,-0.1999,-0.2,-0.2,-0.1809,-0.1801,-0.1793,-0.1733,0,0,-0.1768,-0.1765,0,0,0,0,0,0,0,0,-0.2409,-0.239,-0.2214,-0.2206,-0.2197,-0.2064,-0.2108,-0.1962,-0.1999,-0.2073,-0.2,-0.2,-0.1891,-0.1876,-0.184,-0.1724,-0.1715,-0.1767,-0.1762,-0.1759,-0.1757,0,0,0,0,0,0,0,-0.2419,-0.2397,-0.2194,-0.2211,-0.2201,-0.218,-0.216,-0.208,-0.1981,-0.2066,-0.206,-0.204,-0.1886,-0.1848,-0.1835,-0.1713,-0.1768,-0.176,-0.1755,-0.1752,-0.1537,-0.1536,0,0,0,0,0,0,-0.2441,-0.2407,-0.22,-0.2189,-0.2307,-0.2175,-0.2152,-0.2107,-0.1982,-0.1963,-0.2039,-0.2037,-0.1862,-0.1845,-0.1828,-0.1749,-0.1759,-0.1751,-0.1746,-0.1538,-0.1537,-0.1536,0,0,0,0,0,0,-0.2447,-0.2423,-0.2208,-0.2296,-0.2267,-0.2169,-0.2119,-0.2103,-0.2064,-0.1962,-0.1943,-0.2019,-0.1862,-0.1839,-0.1757,-0.1741,-0.1748,-0.174,-0.1538,-0.1537,-0.1536,-0.1591,0,0,0,0,0,0,-0.2455,-0.2426,-0.2403,-0.2296,-0.2262,-0.2142,-0.2118,-0.2099,-0.2051,-0.2046,-0.1937,-0.192,-0.186,-0.177,-0.1749,-0.173,-0.1734,-0.1539,-0.1538,-0.1537,-0.159,-0.1592,-0.1593,0,0,0,0,0,-0.2466,-0.2425,-0.2402,-0.2378,-0.2232,-0.2141,-0.2122,-0.2056,-0.205,-0.2026,-0.196,-0.1923,-0.1746,-0.1762,-0.1738,-0.1716,-0.154,-0.1538,-0.1537,-0.1589,-0.1591,-0.1593,0,0,0,0,0,0,-0.253,-0.2409,-0.2383,-0.2307,-0.2235,-0.2128,-0.2095,-0.206,-0.1987,-0.1985,-0.1904,-0.188,-0.1805,-0.1752,-0.1772,-0.1651,-0.164,-0.1633,-0.1688,-0.1689,-0.1691,-0.1705,-0.1727,0,0,0,0,0,-0.2536,-0.2474,-0.2371,-0.2313,-0.2279,-0.2194,-0.2151,-0.2107,-0.2028,-0.1997,-0.1925,-0.1849,-0.1776,-0.173,-0.1657,-0.1582,-0.1556,-0.1554,-0.1556,-0.1558,-0.1553,-0.1509,-0.1506,-0.153,-0.153,-0.153,0,0,-0.2547,-0.2473,-0.2438,-0.2325,-0.2264,-0.22,-0.2168,-0.2102,-0.2053,-0.1986,-0.1905,-0.185,-0.1759,-0.1681,-0.1642,-0.1634,-0.1541,-0.1556,-0.1558,-0.1551,-0.1507,-0.1505,-0.1503,-0.1529,-0.1529,-0.1529,0,0,-0.2533,-0.2472,-0.2417,-0.2357,-0.2266,-0.221,-0.2197,-0.2095,-0.2056,-0.1974,-0.1922,-0.1862,-0.1738,-0.1676,-0.1628,-0.1592,-0.1555,-0.157,-0.1578,-0.1536,-0.1534,-0.1532,-0.1519,-0.1515,-0.1566,-0.1566,-0.1566,0,-0.2558,-0.2461,-0.2393,-0.233,-0.2281,-0.2219,-0.2162,-0.2107,-0.1996,-0.1963,-0.1956,-0.18,-0.1734,-0.164,-0.1632,-0.1595,-0.1576,-0.1582,-0.154,-0.1537,-0.1534,-0.1521,-0.1516,-0.1568,-0.1568,-0.1568,-0.1567,0,-0.2495,-0.2429,-0.2395,-0.2292,-0.2239,-0.2179,-0.2101,-0.2055,-0.2015,-0.1959,-0.1875,-0.1795,-0.1705,-0.1679,-0.1639,-0.1579,-0.1577,-0.1556,-0.1544,-0.1536,-0.1521,-0.1516,-0.1571,-0.1571,-0.157,-0.1569,0,0,-0.2517,-0.2378,-0.2367,-0.2319,-0.2214,-0.2161,-0.2097,-0.2011,-0.1973,-0.1899,-0.1843,-0.174,-0.172,-0.1666,-0.1618,-0.1581,-0.1557,-0.1564,-0.1561,-0.1566,-0.1486,-0.1502,-0.1498,-0.1533,-0.1531,-0.153,-0.1493,0,-0.249,-0.2376,-0.2313,-0.2225,-0.2162,-0.2103,-0.2048,-0.1977,-0.1923,-0.186,-0.1799,-0.1728,-0.1707,-0.1674,-0.1635,-0.1569,-0.154,-0.157,-0.1478,-0.1476,-0.1503,-0.149,-0.1507,-0.1476,-0.1487,-0.1486,-0.1486,0,-0.2442,-0.2371,-0.2277,-0.218,-0.2151,-0.2103,-0.2019,-0.196,-0.1878,-0.1841,-0.1781,-0.1733,-0.1663,-0.1657,-0.1558,-0.158,-0.1538,-0.15,-0.1497,-0.1486,-0.1481,-0.1478,-0.1465,-0.146,-0.1476,-0.1477,-0.1478,0,-0.2468,-0.2348,-0.2277,-0.2238,-0.2122,-0.209,-0.204,-0.1958,-0.191,-0.1836,-0.1804,-0.1722,-0.1676,-0.1613,-0.1544,-0.1546,-0.1452,-0.144,-0.1418,-0.142,-0.1401,-0.1403,-0.1381,-0.1375,-0.1375,-0.1375,-0.1375,0,-0.2444,-0.2389,-0.2287,-0.2243,-0.2179,-0.2106,-0.2045,-0.199,-0.1918,-0.1861,-0.1803,-0.1751,-0.1663,-0.1599,-0.1544,-0.1471,-0.145,-0.1417,-0.1404,-0.1423,-0.1427,-0.1394,-0.1394,-0.1374,-0.1374,-0.1374,-0.1374,0,-0.2461,-0.2391,-0.2309,-0.2207,-0.218,-0.2138,-0.2049,-0.2003,-0.1947,-0.1875,-0.1854,-0.1764,-0.1686,-0.1611,-0.1506,-0.1469,-0.1395,-0.1377,-0.1424,-0.1416,-0.1399,-0.1401,-0.1354,-0.1344,-0.1346,-0.1346,-0.1346,0,-0.2451,-0.2407,-0.2301,-0.226,-0.2212,-0.2145,-0.2097,-0.2023,-0.1975,-0.1878,-0.1843,-0.1762,-0.1692,-0.157,-0.1494,-0.1413,-0.1392,-0.1381,-0.1379,-0.1399,-0.1391,-0.1395,-0.1389,-0.1382,-0.1383,-0.1383,-0.1383,0,-0.2439,-0.2406,-0.2339,-0.226,-0.2204,-0.2138,-0.2069,-0.2038,-0.1951,-0.1899,-0.182,-0.1766,-0.166,-0.1578,-0.1489,-0.1435,-0.1394,-0.1385,-0.1375,-0.1394,-0.1423,-0.1407,-0.1428,-0.1386,-0.1386,-0.1385,-0.1385,-0.1385,-0.2441,-0.24,-0.2319,-0.2246,-0.2187,-0.2125,-0.2077,-0.2015,-0.1948,-0.1857,-0.1817,-0.1736,-0.1654,-0.153,-0.1477,-0.1411,-0.1402,-0.1388,-0.1385,-0.1382,-0.1387,-0.1434,-0.1395,-0.1394,-0.1394,-0.1394,-0.1394,0,-0.2426,-0.2372,-0.2306,-0.2213,-0.2155,-0.2124,-0.2046,-0.2,-0.193,-0.1858,-0.1791,-0.1699,-0.162,-0.1539,-0.1455,-0.1418,-0.1397,-0.1399,-0.14,-0.1389,-0.14,-0.1417,-0.1417,-0.1417,-0.1417,-0.1417,-0.1417,-0.1417,-0.2412,-0.2341,-0.2299,-0.2197,-0.2141,-0.2064,-0.2022,-0.1964,-0.1906,-0.1806,-0.1741,-0.1689,-0.1613,-0.1523,-0.1448,-0.1426,-0.1398,-0.1404,-0.1377,-0.1389,-0.1388,-0.1386,-0.1402,-0.1399,-0.1399,-0.137,-0.137,-0.137]},{"header":{"parameterUnit":"m.s-1","parameterCategory":1,"la1":30.2991,"la2":30.254,"lo1":-89.0895,"lo2":-89.0444,"dy":0.0017,"dx":0.0017,"nx":28,"ny":28,"refTime":"2025-03-24T03:00:00:Z","depth":0,"parameterNumber":3,"parameterNumberName":"V-component_of_WINDS"},"data":[0,0,0,0,0,0,0,0,0,0,0,0,0,0,0,0,0,0,0,0,0,0,0,0,0,0,0,0,0,0,0,0,0,0,0,0,0,0,0,0,0,0,0,0,0,0,0,0,0,0,0,0,0,0,0,0,0,0,-2.319,-2.319,0,-2.3176,-2.3176,-2.3175,-2.3156,-2.3156,-2.3156,-2.3155,-2.314,-2.314,-2.314,0,0,0,0,0,0,0,0,0,0,0,0,0,-2.32,-2.32,-2.319,-2.319,-2.3189,-2.3176,-2.3176,-2.3175,-2.3156,-2.3156,-2.3156,-2.3155,-2.314,-2.314,-2.314,0,0,0,0,0,0,0,0,0,0,0,0,0,-2.3192,-2.32,-2.319,-2.3178,-2.3177,-2.3176,-2.3176,-2.3175,-2.3156,-2.3156,-2.3155,-2.3155,-2.314,-2.314,-2.314,-2.3148,0,0,-2.3139,-2.3139,0,0,0,0,0,0,0,0,-2.3192,-2.3191,-2.318,-2.3179,-2.3178,-2.3167,-2.3173,-2.3166,-2.3157,-2.3164,-2.3155,-2.3155,-2.3149,-2.3148,-2.3147,-2.3148,-2.3147,-2.3139,-2.3139,-2.3139,-2.3139,0,0,0,0,0,0,0,-2.3193,-2.3192,-2.3184,-2.318,-2.3179,-2.3174,-2.3172,-2.3172,-2.316,-2.3164,-2.3162,-2.3161,-2.3149,-2.3147,-2.3146,-2.3147,-2.3139,-2.3139,-2.3139,-2.3139,-2.3154,-2.3155,0,0,0,0,0,0,-2.3195,-2.3192,-2.3185,-2.3184,-2.3184,-2.3174,-2.3172,-2.3171,-2.316,-2.3157,-2.3161,-2.316,-2.3148,-2.3147,-2.3146,-2.3155,-2.3139,-2.3139,-2.3139,-2.3154,-2.3154,-2.3155,0,0,0,0,0,0,-2.3195,-2.3194,-2.3185,-2.3188,-2.3186,-2.3174,-2.3173,-2.3171,-2.3169,-2.3158,-2.3155,-2.3162,-2.3147,-2.3146,-2.3148,-2.3155,-2.3139,-2.3139,-2.3153,-2.3154,-2.3155,-2.3175,0,0,0,0,0,0,-2.3196,-2.3195,-2.3198,-2.3188,-2.3186,-2.3188,-2.3174,-2.3171,-2.3169,-2.3168,-2.3158,-2.3156,-2.3147,-2.3148,-2.3148,-2.3154,-2.3139,-2.3153,-2.3154,-2.3154,-2.3173,-2.3176,-2.3178,0,0,0,0,0,-2.3196,-2.3204,-2.3198,-2.3197,-2.319,-2.3188,-2.3187,-2.3177,-2.317,-2.3173,-2.3166,-2.3156,-2.3154,-2.3149,-2.3148,-2.3154,-2.3152,-2.3153,-2.3154,-2.3172,-2.3176,-2.3178,0,0,0,0,0,0,-2.3214,-2.3202,-2.3196,-2.3201,-2.3196,-2.3185,-2.3189,-2.3181,-2.3177,-2.3176,-2.3163,-2.3161,-2.3165,-2.3159,-2.3154,-2.3162,-2.3152,-2.3153,-2.3166,-2.3169,-2.3171,-2.3172,-2.3138,0,0,0,0,0,-2.3219,-2.3219,-2.3208,-2.3213,-2.3211,-2.3201,-2.32,-2.3192,-2.3186,-2.3184,-2.3177,-2.3172,-2.317,-2.3169,-2.3166,-2.3173,-2.317,-2.3177,-2.3179,-2.3181,-2.3182,-2.3186,-2.3189,-2.3159,-2.3159,-2.3159,0,0,-2.3228,-2.3222,-2.3223,-2.3217,-2.3212,-2.3213,-2.3199,-2.32,-2.32,-2.3184,-2.3186,-2.318,-2.3174,-2.3178,-2.318,-2.3174,-2.319,-2.3183,-2.3184,-2.3184,-2.3187,-2.319,-2.3193,-2.3159,-2.3159,-2.3159,0,0,-2.3246,-2.3241,-2.3245,-2.3241,-2.3234,-2.3227,-2.3228,-2.3219,-2.3215,-2.3216,-2.3205,-2.3205,-2.3202,-2.3198,-2.3195,-2.3212,-2.3203,-2.3211,-2.3224,-2.3228,-2.323,-2.3233,-2.3239,-2.3242,-2.3212,-2.3212,-2.3213,0,-2.3259,-2.3259,-2.3248,-2.325,-2.3248,-2.3234,-2.3238,-2.3235,-2.3227,-2.3226,-2.322,-2.3217,-2.3211,-2.3215,-2.3219,-2.3217,-2.3218,-2.3213,-2.3231,-2.3233,-2.3235,-2.3241,-2.3243,-2.3214,-2.3213,-2.3213,-2.3213,0,-2.3275,-2.3275,-2.3279,-2.3274,-2.3272,-2.3275,-2.3265,-2.3264,-2.3257,-2.3251,-2.3253,-2.3246,-2.3242,-2.3242,-2.3235,-2.3245,-2.3242,-2.3233,-2.3223,-2.3239,-2.3245,-2.3247,-2.3215,-2.3215,-2.3214,-2.3214,0,0,-2.3304,-2.3292,-2.3294,-2.3291,-2.3283,-2.3283,-2.3286,-2.3283,-2.3283,-2.3278,-2.328,-2.3278,-2.3271,-2.3268,-2.326,-2.3264,-2.3278,-2.3255,-2.3255,-2.326,-2.329,-2.3297,-2.3299,-2.3272,-2.3273,-2.3273,-2.3291,0,-2.332,-2.3324,-2.3315,-2.3321,-2.3321,-2.3308,-2.3311,-2.3306,-2.33,-2.33,-2.3293,-2.3292,-2.3282,-2.328,-2.3283,-2.3276,-2.3284,-2.3274,-2.3274,-2.3274,-2.3277,-2.3302,-2.3309,-2.3326,-2.3293,-2.3293,-2.3293,0,-2.334,-2.3337,-2.3344,-2.3336,-2.3336,-2.3338,-2.3335,-2.3334,-2.3329,-2.3324,-2.3322,-2.3313,-2.3315,-2.3304,-2.3307,-2.33,-2.33,-2.3296,-2.3297,-2.3297,-2.3285,-2.3304,-2.3331,-2.3334,-2.3296,-2.3296,-2.3296,0,-2.3361,-2.3359,-2.3363,-2.3361,-2.3352,-2.3354,-2.335,-2.3344,-2.3343,-2.334,-2.3339,-2.3336,-2.3335,-2.3333,-2.3323,-2.3316,-2.3328,-2.3316,-2.3324,-2.3325,-2.3327,-2.3328,-2.3356,-2.3326,-2.3326,-2.3326,-2.3326,0,-2.3381,-2.3385,-2.3372,-2.3375,-2.338,-2.3369,-2.3374,-2.3369,-2.3364,-2.3365,-2.3353,-2.3355,-2.3342,-2.3342,-2.3334,-2.3338,-2.3337,-2.3334,-2.3332,-2.3336,-2.3336,-2.3335,-2.3334,-2.3327,-2.3326,-2.3326,-2.3326,0,-2.3405,-2.3396,-2.34,-2.3391,-2.3389,-2.3393,-2.3386,-2.3388,-2.3381,-2.3383,-2.3383,-2.3373,-2.3372,-2.3363,-2.336,-2.3355,-2.3362,-2.3357,-2.3364,-2.3363,-2.3372,-2.3372,-2.3402,-2.3406,-2.3372,-2.3373,-2.3373,0,-2.3419,-2.3422,-2.3414,-2.3414,-2.3411,-2.3412,-2.3411,-2.34,-2.34,-2.3394,-2.3397,-2.3395,-2.3394,-2.3394,-2.3386,-2.3384,-2.338,-2.3391,-2.338,-2.3383,-2.3381,-2.3381,-2.3382,-2.3393,-2.3394,-2.3394,-2.3394,0,-2.3444,-2.3439,-2.3439,-2.3437,-2.3436,-2.3434,-2.3431,-2.3432,-2.342,-2.342,-2.342,-2.3419,-2.3417,-2.3416,-2.3413,-2.3408,-2.34,-2.3398,-2.34,-2.3404,-2.3408,-2.3407,-2.3371,-2.3397,-2.3397,-2.3397,-2.3397,-2.3396,-2.3463,-2.3466,-2.3461,-2.3461,-2.3458,-2.3456,-2.3457,-2.3451,-2.3451,-2.3449,-2.3442,-2.3443,-2.3438,-2.3433,-2.343,-2.3431,-2.3425,-2.3428,-2.3429,-2.343,-2.3432,-2.3407,-2.343,-2.343,-2.343,-2.343,-2.343,0,-2.3489,-2.3485,-2.3485,-2.3482,-2.3482,-2.3474,-2.347,-2.3471,-2.3472,-2.3468,-2.3467,-2.3467,-2.3466,-2.3459,-2.3457,-2.3459,-2.3455,-2.3459,-2.3459,-2.3459,-2.3436,-2.3435,-2.3463,-2.3463,-2.3463,-2.3463,-2.3463,-2.3463,-2.3502,-2.3506,-2.3502,-2.3505,-2.3501,-2.3502,-2.3501,-2.3499,-2.3496,-2.3497,-2.3496,-2.3491,-2.3486,-2.3484,-2.3484,-2.3481,-2.3482,-2.3487,-2.3484,-2.3463,-2.346,-2.3457,-2.3456,-2.3487,-2.3487,-2.3506,-2.3506,-2.3506]}]]